Date String (YYYY-MM-DD hh:mm:ss) UTC,Instrument flags,Ambient pressure (hPa),Sample flow (lpm),Bypass flow (lpm),Sample temperature (°C),Ambient temperature (°C),ASC tube jacket temperature (°C),LED temperature (°C),Box temperature (°C),Sample RH (%),Span deviation,Mass concentration (μg/m³),Mass concentration (μg/m³),Mass concentration (μg/m³)
DateTimeUTC,F1_M11,P_M11,Q1_M11,Q2_M11,T1_M11,T2_M11,T3_M11,T4_M11,T5_M11,U1_M11,ZSPAN_M11,X2_M11,X0_M11,X1_M11
2021-09-09 15:00:00,,0831.0,5.00,0.00,30.1,28.9,00.0,39.1,31.8,20.0,0002.1,0026.24,0041.37,0024.09
2021-09-09 15:01:00,,0831.1,5.00,0.00,30.1,29.0,00.0,39.1,31.8,20.4,0002.1,0026.26,0042.81,0024.09
2021-09-09 15:02:00,,0831.2,5.00,0.00,30.1,29.1,00.0,39.2,31.9,20.3,0002.2,0026.26,0043.04,0024.07
2021-09-09 15:03:00,,0831.2,5.00,0.00,30.1,29.1,00.0,39.2,31.9,20.1,0002.2,0026.33,0043.62,0024.08
2021-09-09 15:04:00,,0831.1,5.01,0.00,30.2,29.2,00.0,39.2,31.9,19.9,0002.3,0026.40,0044.02,0024.09
2021-09-09 15:05:00,,0831.1,4.99,0.00,30.2,29.2,00.0,39.2,32.0,19.7,0002.3,0026.37,0043.52,0024.10
2021-09-09 15:06:00,,0831.1,5.02,0.00,30.2,29.3,00.0,39.2,32.0,19.7,0002.3,0026.31,0042.84,0024.09
2021-09-09 15:07:00,,0831.1,5.00,0.00,30.2,29.4,00.0,39.2,32.0,19.6,0002.3,0026.35,0043.02,0024.10
2021-09-09 15:08:00,,0831.1,4.99,0.00,30.3,29.4,00.0,39.3,32.0,20.7,0002.1,0026.32,0043.39,0024.06
2021-09-09 15:09:00,,0831.1,5.01,0.00,30.3,29.1,00.0,39.3,32.0,20.7,0001.9,0026.33,0042.07,0024.07
2021-09-09 15:10:00,,0831.1,5.00,0.00,30.2,27.3,00.0,39.3,31.5,20.4,0001.8,0026.29,0041.70,0024.06
2021-09-09 15:11:00,,0831.0,5.00,0.00,30.0,26.5,00.0,39.2,31.3,21.1,0001.7,0026.24,0042.41,0024.03
2021-09-09 15:12:00,,0831.0,5.01,0.00,30.0,26.8,00.0,39.2,31.4,21.2,0001.8,0026.18,0043.28,0024.01
2021-09-09 15:13:00,,0831.0,5.00,0.00,29.9,27.2,00.0,39.2,31.4,21.1,0001.7,0026.15,0043.80,0024.00
2021-09-09 15:14:00,,0831.0,4.99,0.00,29.9,27.6,00.0,39.1,31.5,21.3,0001.7,0026.07,0043.60,0023.94
2021-09-09 15:15:00,,0831.0,4.99,0.00,29.9,28.0,00.0,39.1,31.5,22.1,0001.5,0025.96,0043.65,0023.87
2021-09-09 15:16:00,,0831.0,5.01,0.00,29.9,28.2,00.0,39.1,31.6,22.0,0001.6,0025.97,0044.83,0023.81
2021-09-09 15:17:00,,0831.0,5.01,0.00,29.9,28.4,00.0,39.1,31.7,21.9,0001.5,0026.00,0045.10,0023.78
2021-09-09 15:18:00,,0831.1,5.00,0.00,30.0,28.6,00.0,39.1,31.7,21.9,0001.1,0026.03,0046.71,0023.74
2021-09-09 15:19:00,,0831.1,4.99,0.00,30.0,28.8,00.0,39.1,31.7,22.3,0001.0,0026.13,0046.62,0023.74
2021-09-09 15:20:00,,0831.0,5.01,0.00,30.0,28.9,00.0,39.1,31.8,22.0,0001.1,0026.18,0047.39,0023.70
2021-09-09 15:21:00,,0831.0,5.00,0.00,30.1,29.0,00.0,39.1,31.8,21.3,0001.0,0026.17,0048.24,0023.67
2021-09-09 15:22:00,,0831.0,4.99,0.00,30.1,29.1,00.0,39.1,31.9,20.5,0000.9,0026.07,0047.86,0023.61
2021-09-09 15:23:00,,0831.1,5.01,0.00,30.1,29.1,00.0,39.1,31.9,21.2,0000.7,0026.02,0046.45,0023.54
2021-09-09 15:24:00,,0831.1,4.99,0.00,30.1,29.2,00.0,39.1,31.9,21.1,0001.0,0026.03,0045.91,0023.53
2021-09-09 15:25:00,,0831.1,5.00,0.00,30.2,28.9,00.0,39.2,31.9,20.9,0001.3,0026.00,0046.47,0023.54
2021-09-09 15:26:00,,0831.1,5.00,0.00,30.1,27.2,00.0,39.1,31.5,20.4,0001.4,0026.03,0046.40,0023.56
2021-09-09 15:27:00,,0831.0,4.99,0.00,29.9,26.4,00.0,39.1,31.2,21.1,0001.7,0026.02,0045.21,0023.56
2021-09-09 15:28:00,,0831.1,5.01,0.00,29.9,26.8,00.0,39.1,31.3,21.1,0001.9,0025.99,0045.22,0023.54
2021-09-09 15:29:00,,0831.1,5.00,0.00,29.8,27.2,00.0,39.0,31.3,21.2,0002.5,0025.90,0043.27,0023.50
2021-09-09 15:30:00,,0831.2,4.99,0.00,29.8,27.6,00.0,39.0,31.4,20.8,0002.7,0025.77,0043.46,0023.43
2021-09-09 15:31:00,,0831.1,5.01,0.00,29.8,27.9,00.0,39.0,31.4,20.6,0002.7,0025.65,0044.04,0023.37
2021-09-09 15:32:00,,0831.1,5.00,0.00,29.8,28.2,00.0,39.0,31.5,20.6,0002.8,0025.63,0042.99,0023.36
2021-09-09 15:33:00,,0831.0,4.99,0.00,29.8,28.4,00.0,39.0,31.6,20.7,0002.7,0025.73,0043.09,0023.39
2021-09-09 15:34:00,,0831.0,5.01,0.00,29.9,28.5,00.0,39.0,31.6,20.6,0002.6,0025.72,0043.21,0023.40
2021-09-09 15:35:00,,0831.0,4.99,0.00,29.9,28.7,00.0,39.0,31.7,20.5,0002.6,0025.64,0044.48,0023.38
2021-09-09 15:36:00,,0831.0,5.01,0.00,29.9,28.8,00.0,39.0,31.7,20.5,0002.3,0025.62,0043.84,0023.35
2021-09-09 15:37:00,,0831.0,5.02,0.00,30.0,28.9,00.0,39.0,31.8,20.7,0002.3,0025.62,0043.98,0023.32
2021-09-09 15:38:00,,0831.1,5.00,0.00,30.0,29.0,00.0,39.0,31.8,20.5,0002.0,0025.60,0044.42,0023.30
2021-09-09 15:39:00,,0831.2,5.00,0.00,30.0,29.1,00.0,39.0,31.9,20.1,0001.7,0025.57,0044.51,0023.29
2021-09-09 15:40:00,,0831.2,5.01,0.00,30.1,29.1,00.0,39.1,31.9,20.2,0001.5,0025.53,0044.27,0023.27
2021-09-09 15:41:00,,0831.2,5.01,0.00,30.1,28.0,00.0,39.1,31.6,20.4,0001.2,0025.39,0043.68,0023.25
2021-09-09 15:42:00,,0831.2,4.98,0.00,29.9,26.5,00.0,39.0,31.2,20.4,0001.3,0025.33,0042.74,0023.24
2021-09-09 15:43:00,,0831.2,5.01,0.00,29.8,26.5,00.0,39.0,31.2,20.4,0001.4,0025.32,0043.45,0023.23
2021-09-09 15:44:00,,0831.2,5.00,0.00,29.8,27.0,00.0,39.0,31.3,19.9,0001.5,0025.27,0042.77,0023.18
2021-09-09 15:45:00,,0831.1,5.00,0.00,29.7,27.4,00.0,38.9,31.3,20.0,0001.8,0025.31,0043.44,0023.17
2021-09-09 15:46:00,,0831.1,4.99,0.00,29.7,27.7,00.0,38.9,31.4,19.9,0001.9,0025.35,0044.04,0023.15
2021-09-09 15:47:00,,0831.1,5.00,0.00,29.7,28.0,00.0,38.9,31.4,20.1,0001.8,0025.37,0043.75,0023.15
2021-09-09 15:48:00,,0831.0,5.00,0.00,29.8,28.3,00.0,38.9,31.5,19.9,0002.1,0025.30,0043.09,0023.12
2021-09-09 15:49:00,,0831.1,5.01,0.00,29.8,28.5,00.0,38.9,31.6,20.0,0002.2,0025.23,0042.65,0023.08
2021-09-09 15:50:00,,0831.1,5.00,0.00,29.8,28.6,00.0,38.9,31.6,20.0,0002.3,0025.22,0041.49,0023.04
2021-09-09 15:51:00,,0831.1,5.00,0.00,29.9,28.8,00.0,38.9,31.7,20.0,0002.5,0025.25,0041.44,0023.03
2021-09-09 15:52:00,,0831.1,5.00,0.00,29.9,28.9,00.0,38.9,31.8,20.5,0002.9,0025.34,0042.22,0023.04
2021-09-09 15:53:00,,0831.1,5.01,0.00,30.0,29.0,00.0,38.9,31.8,21.1,0003.0,0025.31,0042.46,0023.01
2021-09-09 15:54:00,,0831.0,4.99,0.00,30.0,29.1,00.0,39.0,31.9,21.4,0002.8,0025.33,0043.17,0023.00
2021-09-09 15:55:00,,0831.0,5.01,0.00,30.0,28.6,00.0,39.0,31.8,21.3,0002.7,0025.26,0043.56,0022.96
2021-09-09 15:56:00,,0831.0,4.99,0.00,29.9,26.9,00.0,39.0,31.3,21.3,0002.6,0025.22,0043.18,0022.96
2021-09-09 15:57:00,,0831.0,5.01,0.00,29.8,26.4,00.0,38.9,31.2,21.5,0002.4,0025.24,0040.83,0022.94
2021-09-09 15:58:00,,0831.0,4.99,0.00,29.8,26.8,00.0,38.9,31.2,21.5,0002.6,0025.26,0041.97,0022.91
2021-09-09 15:59:00,,0831.1,5.01,0.00,29.7,27.2,00.0,38.9,31.3,21.4,0002.5,0025.35,0042.90,0022.90
